"Pseudo-MPEC" for P10OpJt

Created 2019 Jun 15 19:09:16 UT using Find_Orb

Click here for an explanation of pseudo-MPECs

 
 Astrometry: 
     P10OpJt  C2014 06 14e%/nntKN]Ijc)MoY@GP*JkF-54hr;c`ZBJN6DS?'#/E`6nsV;I:@F51
     P10OpJt  C2014 06 14n;M))oUDXY!fak0;dlrs72c++s!/4A#)na2c0B2iwx+BcF-UZFPxF51
     P10OpJt  C2014 06 14Q5qRD_MhA=T+Y?'FbXxmTa9;p1vaNHQETu+(QMIn\.(!5NcGLWhJF51
     P10OpJt  C2014 06 14q^\m!wu#NAW$_/S/$5q`jahT.ned\i\uK)P#%S+0/ps3Yw#*7mk%F51
     P10OpJt  C2014 06 20!Ts@00T+5^[8=4D=D-wnd'Wg2n5WM61!1*1A^VvwI91m0/Ta$5L_F51
     P10OpJt  C2014 06 20FmKo()Bs:C*DT%]p[YG^MX+7h`yFO%+urWjU`g(TdfSsk6io7eBIF51
     P10OpJt  C2014 06 20J4703]9lC5YM:UHeu!Astrometry^@7'G-rf)Bj=3U*Knvn]oHqBF51
     P10OpJt  C2014 06 20qRd\Mftn#o0t5np%1*ZpUOF#f;K]^gU6Qk==feuBZ_pISgO?KciZF51
     P10OpJt  C2014 06 26l5]YQ.5OK%Z=vR]bM%BfOF@O9A8(!_=^nF4]O:019n!iMwUVwOsLF51
     P10OpJt  C2014 06 26BneJpJB.BjU0N*JDn[70)lS0DcgAl:n5.3_X7'gYrBCnxO)69g(mF51
     P10OpJt  C2014 06 28wL0nX7AOwy@XfS*bv^iD]rNs1;!$l(41vkC8(AYra8^:v!j[j5ckF51
     P10OpJt  C2014 06 28MXl,Jtt5Je3nQ7'#xsblpc]+-rII5:Pm`\redacted;q5Wa9BtVjF51
     P10OpJt  C2019 05 31%mr)FkEl;bOFo!Ir6cH]$_Um,8j]od/R0wVp_,.afZx)]5aBjT8`F51
     P10OpJt  C2019 05 31aPP#gAv,QQ*.GCnc,U)f-3Iwtkg))(j42GU2iR?t]#\*F*G,:+s!F51
     P10OpJt  C2019 05 31Bxlh@uqH?_Zg;G0G@^*CAhCKiPetIg8Ee_3+Z_-DBA9i+`/iD,d2F51
     P10OpJt ^C2019 06 02.40603615 52 38.011-38 52 50.90   ~62Aq 19.18GVNEOCP568
     P10OpJt ^C2019 06 02.40704215 52 37.712-38 52 46.84   ~62Aq 19.11GVNEOCP568
     P10OpJt ^C2019 06 02.40906015 52 37.115-38 52 38.71   ~62Aq 19.09GVNEOCP568
     P10OpJt KC2019 06 04O6VYUP\vC((o!T/pSQ7ltv-)f+i*rrtNRP$hLGpB)@DFtS'^.NX*I47
     P10OpJt KC2019 06 045;J@*U8Of.YEw`FG(PgLvYlC=KO+`j/'N?+H`9'_6A+^J5%PeA0XI47
     P10OpJt KC2019 06 04?'2j1qQ!'2*E+5mENO*click?pjWtY\KEX5WhereQpiu'aL]B8ggI47
     P10OpJt KC2019 06 04D5i*dtI4Z/wq4vO#SZsCUU^\8t%G[6.?\i5#xQt2NI5']b$9=u/vI47
     P10OpJt KC2019 06 05ohDhIZvC5X2$2i=dhkgWMKs+d7H9DbiBPlWL5F^!$JkhUforHYBYL29
     P10OpJt KC2019 06 05`mRl1C:JD8g35=%Fjol(pp-aPupR.m1o:c;L-/P+G=65w\Yl(a=RL29
     P10OpJt KC2019 06 05nX\C)4Rvy!6cJKG/Ld'cS$y2K\tB4Bqf)_rY_spi2:35fR)+t]y?L29
     P10OpJt KC2019 06 058A-4vXT%rL9Wy/3hum(/(Iax,lLC0LbmJki\EITrb1qKx:kv/MyJL29
     P10OpJt KC2019 06 05K,qRO'$l^KpO;RN-FZrr_Kf_bIjbsoHjGQLKwdwGmlAdaBxYn]*ZL29
     P10OpJt KC2019 06 05v!vEk8s:`=blCgC-kdkv(,?f=JFn%B9J5fdO^A'H?5@0i+U?3a]nX31
     P10OpJt KC2019 06 05Ie*IY/FM3[9x0wX,%KnG[7,jWsQng1rSAf%A99Skg*IMc*x1+3I7X31
     P10OpJt KC2019 06 05#Z0.NR?F_[BK;ceT@rE-VnZ@R2+]ETth_0=kOcPe_UItZiFYP#'dX31
     P10OpJt  C2019 06 06.26366 15 34 28.65 -34 13 23.6    ~666q 18.9 GVNEOCPI52
     P10OpJt  C2019 06 06.26408 15 34 28.56 -34 13 21.6    ~666q 18.9 GVNEOCPI52
     P10OpJt  C2019 06 06.26449 15 34 28.39 -34 13 19.7    ~666q 19.1 GVNEOCPI52
     P10OpJt  C2019 06 06.26491 15 34 28.36 -34 13 17.5    ~666q 19.0 GVNEOCPI52
     P10OpJt  C2019 06 06.26533 15 34 28.23 -34 13 15.5    ~666q 19.1 GVNEOCPI52
     P10OpJt KC2019 06 06wZv(=u7lw%+avvj:Uy[5HVIk(AYd_0D5m;0^aaclH:BmTHHS*8V:E23
     P10OpJt KC2019 06 06a!pDw*.\:,r-!\kcD//FIR9WTd^TtRovI9sS!/Ga'Ucdbcib2ACPE23
     P10OpJt  C2019 06 07r.4(guXjiQwDaD,ByI`TOH=1*:gMj_5X?rynPi7\f\weB?kZrt(6F51
     P10OpJt  C2019 06 078mt,4!vM7UlcTamxROh)0FHUZtObdB0^ND`KrQZ:hY-f27_=he=jF51
     P10OpJt  C2019 06 07@w?J:)lJB@H(EtY%9MHLZ4^Ks9i$,`x^%Hxcn+i$ghyHlMpa*#3XF51
     P10OpJt  C2019 06 07VNt4rnuR1CTp2Y]U27#$sB%Wyli;=i?,sTkLe45!9LVKc3O',r`=F51
     P10OpJt KC2019 06 07q--g/$0NdLH=N],Tr-Hx=saP#h6O)-6:AEsRN]$PVv$9(2fiZd`.E94
     P10OpJt KC2019 06 07Lj1n`Q3:g(\gU4;8lEnhIbJ5Nmpl-XrwiAW)rEC`'%'\mBN`AC(jE94
     P10OpJt KC2019 06 07+SY3OYb-R_PsqYEW+C6fY*b-j)*rMi%-Z\\BDh[N;Rb`n?FkU2$9E94
     P10OpJt  C2019 06 08.17228 15 25 57.96 -31 41 22.2    ~690b 19.1 GVNEOCPI52
     P10OpJt  C2019 06 08.17247 15 25 57.90 -31 41 21.9    ~690b 19.1 GVNEOCPI52
     P10OpJt  C2019 06 08.17537 15 25 57.08 -31 41 07.4    ~690b 18.9 GVNEOCPI52
     P10OpJt  C2019 06 08.17828 15 25 56.37 -31 40 52.7    ~690b 18.9 GVNEOCPI52
     P10OpJt KC2019 06 08u2)$V,,59boOxksfM[%dBN)hs8xRO05.k:2'SOP(MBVnIXONBqV%I47
     P10OpJt KC2019 06 089Pexplanation=nNIC8_Q*k+eDZ'a87/aI_iE0FJ$vAr$E;*mZh^I47
     P10OpJt KC2019 06 08?T]SJ;U$W$=FI(FM,Bn$F9?wfQf%ptbJDZ?`iw=m;=pCdwO`ESa9I47
     P10OpJt KC2019 06 08L#69TV%PZ)N:Hh)y_P:#]gwf'Bsh[FlL_(#%3].aw0PZ0i0$l03-I47
     P10OpJt  C2019 06 09.19614 15 21 32.73 -30 16 45.1    ~695M 17.9 GVNEOCPI52
     P10OpJt  C2019 06 09.20451 15 21 30.38 -30 16 03.9    ~695M 19.1 GVNEOCPI52
     P10OpJt KC2019 06 10(;O]eH)7a*?dc,!Lnx6xXgB%4RAG9#BY-')DB3,QJ-#r_9pq:89sE23
     P10OpJt KC2019 06 10LE:s^qj'Qj42s3Ua+a8UIoNb.xZjMusijWaZ8lJ'$w:Y^EuvTxE\E23
     P10OpJt KC2019 06 10`T5@0%n`vAOfxj7\$a!2t`1o6?m\V.jk(JP:Fqj2J4f;Kj32lE`RE23
     P10OpJt HC2019 06 110VBO#$_1HPn#!D=G-4@v[Gkn3]msi#Oe,-Dlrlvfowe3y[tg!pg\691
     P10OpJt HC2019 06 11=2P*IC$l-X`:RgHO-rQYS%F.vhjmtx$qVpKcN2X*ySG,qNY-f[.u691
     P10OpJt HC2019 06 111v?%PnWTegK7PSIb^gak5H=[r$GS2vebD9dUmOB@LLC5d1PUxKqY691
     P10OpJt KC2019 06 11Cu[PbWo$M9=7n1Aj)a=/+Rsp((J[-A:*pO[2-P74jT8?G)#.FfmRE94
     P10OpJt KC2019 06 11`c4B3oP.dZ%9o7F(5j7;\0b?gJeTqn[,6I!@W?U\Y$NY$0HnG=+XE94
     P10OpJt KC2019 06 11%JE*jSaG7G8`IXBgT!l\5pm7?:UJL4NL%tZM2'er*w6MeE(1'='tE94
     P10OpJt KC2019 06 11/FidJoxyu=q!kQ(#3Gv=Dfjc1MtmDAS0=MZU3w0$)8(_X3^xXG0+E94
     P10OpJt KC2019 06 12BWOxx]/'Cax)9/.B!68;H%yF]0BBgrtf/OO/0rrJ/13=-5-yPU$)691
     P10OpJt KC2019 06 12Vb)f^T0T@?)oO:AUfkdQ%\^ni]xy;'UWduD)Ly#l(LAvmPb_n9PQ691
     P10OpJt KC2019 06 122thdM*k\;/WWTa^SdP57K2^UNCIB;M'Nk!6]oFnMU1-t;Bef.IA7691

Station data:
(568) Mauna Kea  (N19.826116 W155.472200)  US/Hawaii.
(691) Steward Observatory, Kitt Peak - Spacewatch  (N31.962174 W111.600327)
   US/Arizona.  Observer J. V. Scotti. 0.9-m f/3 reflector + CCD.
(E23) Arcadia  (S33.621199 E151.071190)  Australia/NSW.
(E94) Gisborne (Possum Observatory)  (S38.629922 E177.883310)  New Zealand.
(F51) Pan-STARRS 1, Haleakala  (N20.707235 W156.255910)  US/Hawaii.
   Observers N. Primak, A. Schultz, S. Watters, J. Thiel, T. Goggia. Measurer
   PS1 Science Consortium. 1.8-m Ritchey-Chrétien + CCD.
(I47) Pierre Auger Observatory, Malargüe  (S35.495442 W69.449700)  Argentina.
(I52) Steward Observatory, Mt. Lemmon Station  (N32.442547 W110.788920)
   US/Arizona.  Observers T. A. Pruyne, B. M. Africano, E. J. Christensen, G.
   A. Farneth, D. C. Fuls, A. R. Gibbs, A. D. Grauer, H. Groeller, R. E.
   Hill, J. A. Johnson, R. A. Kowalski, S. M. Larson, G. J. Leonard, R. G.
   Matheny, R. H. McNaught, R. L. Seaman, F. C. Shelly. 1.0-m reflector + CCD.
(L29) Drebach-South Observatory, Windhoek  (S23.460102 E18.016900)  Namibia.
(X31) Galileo Galilei Observatory, Oro Verde  (S31.823022 W60.520660)
   Argentina.

Orbital elements:  P10OpJt
   Perihelion 2019 Oct 2.664016 +/- 0.000483 TT = 15:56:10 (JD 2458759.164016)
Epoch 2019 Jun 12.0 TT = JDT 2458646.5   Earth MOID: 0.2382   Ve: 0.0367
M 270.74759884 +/- 0.00038          (J2000 ecliptic)          AutoNEOCP
n   0.79219971 +/- 2.36e-8          Peri.  133.71143 +/- 0.00016
a   1.15676798 +/- 2.3e-8           Node   255.33542 +/- 0.000059
e   0.4691642 +/- 3.22e-6           Incl.   42.23932 +/- 0.00036
P   1.24/454.42d           H 19.6   G  0.15   U  1.7  
q 0.61405374 +/- 3.72e-6    Q 1.69948222 +/- 3.73e-6
From 67 observations 2014 June 14-2019 June 12; mean residual 0".38
Residuals in arcseconds: 
140614 F51  .20+  .10-    190605 L29  .13-  .01-    190608 I52  .35-  .13-    
140614 F51  .02+  .22+    190605 L29  .46-  .07-    190608 I52  .64+  .37+    
140614 F51  .01+  .19+    190605 L29  .41-  .14-    190608 I47  .02+  .26-    
140614 F51  .14+  .02-    190605 L29  .15-  .07-    190608 I47  .23+  .15+    
140620 F51  .07-  .04+    190605 X31  .66-  .31-    190608 I47  .38+  .76-    
140620 F51  .02-  .34-    190605 X31  .26-  .30-    190608 I47  .17+  .43-    
140620 F51  .15+  .01+    190605 X31  .03+  .40-    190609 I52  1.1+  .08+    
140620 F51  .10-  .02+    190606 I52  .22-  .34-    190609 I52  .68-  .60-    
140626 F51  .08+  .09+    190606 I52  .13+  .29-    190610 E23  .07-  .14+    
140626 F51  .14-  .11-    190606 I52  .54-  .30-    190610 E23  .26-  .11-    
140628 F51  .13-  .02-    190606 I52  .56+  .05-    190610 E23  .33+  .05+    
140628 F51  .07-  .04-    190606 I52  .42+  .01-    190611 691  .12+  .62-    
190531 F51  .02+  .11+    190606 E23  .86-  .49+    190611 691  .42+  .40+    
190531 F51  .01-  .01-    190606 E23  .86-  .07-    190611 691  1.3+  .40+    
190531 F51  .03-  .15+    190607 F51  .08+  .05-    190611 E94  .26-  .31+    
190602 568  .05+  .10-    190607 F51  .05+  .11-    190611 E94  .16-  .00     
190602 568  .08+  .10-    190607 F51  .11+  .08-    190611 E94  .01+  .05-    
190602 568  .18+  .10-    190607 F51  .14+  .22-    190611 E94  .15-  .49+    
190604 I47  .76+  .08+    190607 E94  1.1-  .52-    190612 691  .25+  .41+    
190604 I47  .69+  .39+    190607 E94  .28-  .25-    190612 691  .22+  .42+    
190604 I47  .42+  1.2+    190607 E94  .47-  .67+    190612 691  .20+  .34+    
190604 I47  .74+  .44+    190608 I52  .22+  .14+    
190605 L29  .57-  .01-    190608 I52  .11+  .49-    

Ephemerides (geocentric):
Date (UTC) HH   RA              Dec         delta   r     elong  mag " sig PA
---- -- -- --  -------------   -----------  ------ ------ -----  --- ---- ---
2019 06 15 19  14 56 06.502   -20 39 45.04  .39570 1.3539 143.3 19.4 .144 134
2019 06 15 20  14 55 57.927   -20 36 01.82  .39571 1.3536 143.2 19.4 .144 134
2019 06 15 21  14 55 49.366   -20 32 18.60  .39572 1.3534 143.1 19.4 .145 134
2019 06 15 22  14 55 40.819   -20 28 35.38  .39574 1.3531 143.1 19.4 .145 134
2019 06 15 23  14 55 32.285   -20 24 52.18  .39575 1.3529 143.0 19.4 .146 134
2019 06 16 00  14 55 23.765   -20 21 08.98  .39576 1.3526 142.9 19.4 .146 134
2019 06 16 01  14 55 15.259   -20 17 25.80  .39578 1.3524 142.8 19.4 .147 134
2019 06 16 02  14 55 06.767   -20 13 42.62  .39580 1.3521 142.7 19.4 .147 134
